www.pogodaiklimat.ru

Погода и климат >> Архив погоды >> Россия >> Крым >> Симферополь


АРХИВ ПОГОДЫ в Симферополе

Время (UTC), дата Ветер
(напр.,м/с)
 
Видим.   Явления Облачность Т
(С)
Тd
(С)
f
(%)
Тe
(С)
Тes
(С)
Комфортность P
(гПа)
Po
(гПа)
Тmin
(С)
Tmax
(С)
R
(мм)
R24
(мм)
S
(см)
09 13.09 СВ 9-12
{14}
10 км 6/3 1500 м
[Cu hum Ac cuf]
+26.7 +8.2 31 +27 +27 жарко 1021.2 1000.5
12 13.09 СВ 9-13
{15}
10 км ясно +27.0 +4.1 23 +26 +27 жарко 1020.6 999.9
15 13.09 СВ 8-12
{15}
10 км 1/0
[Ci fib]
+24.2 +5.1 29 +24 +24 комфорт 1020.9 1000.0
18 13.09 В 3
{12}
10 км 3/0
[Ci fib]
+16.7 +5.9 49 +17 +17 тепло 1022.2 1000.7 +27.8
21 13.09 В 3 10 км ясно +14.4 +8.1 66 +14 +14 по сезону 1022.2 1000.6
00 14.09 В 4 10 км ясно +14.2 +8.2 67 +13 +13 по сезону 1021.9 1000.3
03 14.09 В 4 10 км 3/0
[Ci fib]
+16.2 +7.2 55 +16 +16 тепло 1021.3 999.8 +12.6
06 14.09 СВ 2 10 км ясно +22.1 +5.1 33 +22 +26 комфорт 1021.7 1000.6 +12.6
09 14.09 С 3 10 км ясно +26.0 +3.9 24 +25 +34 комфорт 1020.5 999.7
12 14.09 СВ 3 10 км 3/0
[Ac trans]
+28.2 +3.1 20 +26 +32 жарко 1018.9 998.3
15 14.09 З 6
{12}
10 км 5/0
[Ci fib]
+23.5 +12.8 51 +26 +26 жарко 1018.7 997.8
18 14.09 СЗ 3 10 км 10/0
[Ci fib]
+20.6 +10.7 53 +23 +23 комфорт 1019.6 998.5 +28.7
21 14.09 СВ 4 10 км 10/0
[Ac trans Ci fib]
+20.2 +8.8 48 +22 +22 комфорт 1021.0 999.8
00 15.09 СВ 6 10 км 1/0
[Ci fib]
+16.8 +10.0 64 +16 +16 тепло 1021.9 1000.5
03 15.09 В 4 10 км ясно +13.0 +7.5 69 +11 +11 прохладно 1022.8 1001.0 +12.6
06 15.09 СВ 6 10 км ясно +16.3 +7.0 54 +15 +17 по сезону 1023.9 1002.4 +12.4
09 15.09 СВ 7-12
{13}
10 км ясно +21.8 +3.5 30 +22 +25 комфорт 1023.1 1002.0
12 15.09 С 6
{12}
10 км ясно +23.0 +0.2 22 +22 +25 комфорт 1022.3 1001.2
15 15.09 СВ 4
{11}
10 км ясно +21.2 -0.7 23 +21 +21 комфорт 1022.3 1001.1
18 15.09 В 3 10 км ясно +16.4 +0.5 34 +16 +16 по сезону 1022.9 1001.4 +23.6
21 15.09 ЮВ 4 10 км ясно +15.4 0.0 35 +15 +15 тепло 1021.8 1000.2
00 16.09 штиль 0 10 км ясно +9.8 +1.2 55 +9 +9 по сезону 1021.5 999.5
03 16.09 ЮВ 3 10 км ясно +10.9 +0.3 48 +9 +9 прохладно 1020.4 998.5 +9.1
06 16.09 ЮВ 2 10 км ясно +18.3 0.0 29 +19 +22 тепло 1019.2 997.9 +9.1
09 16.09 СЗ 2 10 км 1/0
[Ci fib]
+22.6 -2.2 19 +21 +32 комфорт 1017.2 996.2
12 16.09 З 6
{11}
10 км ясно +23.2 +3.2 27 +23 +26 комфорт 1016.1 995.2
15 16.09 З 6
{10}
10 км ясно +20.6 +7.9 44 +22 +22 комфорт 1014.8 993.8
18 16.09 Ю 4 10 км ясно +14.5 +10.5 77 +13 +13 по сезону 1015.1 993.6 +24.9
21 16.09 Ю 4 10 км ясно +13.0 +10.9 87 +11 +11 по сезону 1015.2 993.6
00 17.09 Ю 4 10 км ясно +12.4 +10.5 88 +10 +10 по сезону 1014.3 992.7
03 17.09 Ю 4 10 км ясно +13.2 +10.7 85 +11 +11 прохладно 1013.2 991.7 +12.2
06 17.09 Ю 6 10 км 8/8 540 м
[Sc]
+19.5 +13.7 69 +21 +21 комфорт 1012.6 991.6 +12.2
09 17.09 ЮЗ 7-10
{10}
10 км 8/1 1000 м
[Cu hum Ci]
+23.8 +13.9 54 +26 +28 жарко 1011.9 991.2
12 17.09 ЮЗ 7-10
{12}
10 км 10/0
[As trans Ci sp]
+23.6 +13.5 53 +26 +27 жарко 1011.3 990.6
15 17.09 ЮЗ 7-10
{12}
10 км 9/5 800 м
[Cb calv Ac trans]
+21.6 +16.6 73 +25 +25 комфорт 1010.6 989.8
18 17.09 ЮЗ 4
{10}
10 км 10/4 750 м
[Cb calv Ac und]
+19.1 +16.9 87 +21 +21 комфорт 1011.8 990.8 +25.5
21 17.09 Ю 3 10 км 4/0
[Ac trans]
+16.7 +14.7 88 +16 +16 тепло 1012.2 991.0
00 18.09 Ю 4 10 км 6/0
[Ac trans]
+17.9 +16.1 89 +18 +18 тепло 1011.5 990.4
03 18.09 Ю 4 10 км 3/0
[Ac trans]
+17.3 +10.0 62 +17 +17 тепло 1009.7 988.6 +16.4
06 18.09 ЮЗ 11-15
{14}
10 км 1/0
[Ac trans]
+23.1 +16.6 67 +28 +28 душно 1009.2 988.5 +16.4
09 18.09 З 10-14
{15}
10 км 8/3 1000 м
[Cu hum Ac trans]
+25.7 +15.4 53 +29 +29 душно 1009.9 989.4
12 18.09 З 6-12
{14}
10 км 8/0
[Ac trans]
+24.4 +12.4 47 +26 +28 жарко 1010.9 990.2
15 18.09 СЗ 5
{12}
10 км 8/0
[Ac trans]
+18.5 +7.0 47 +18 +19 по сезону 1014.8 993.6
18 18.09 СЗ 3 10 км {ливн. осадки} 10/0
[Ac As]
+16.4 +4.4 45 +16 +16 тепло 1017.3 995.9 +26.9 0.1
21 18.09 З 2 10 км 8/0
[Ac trans]
+13.6 +4.2 53 +13 +13 по сезону 1019.4 997.7
00 19.09 С 3 10 км ясно +10.4 +1.8 55 +9 +9 по сезону 1021.1 999.2
03 19.09 В 3 10 км 1/0
[Ac lent]
+9.3 +2.6 63 +7 +7 холодно 1021.8 999.8 +8.7 0.1
06 19.09 СВ 1 10 км 8/0
[Ac trans Ci fib]
+14.2 +3.9 50 +15 +18 по сезону 1022.6 1000.9 +8.7
09 19.09 З 2 10 км 8/0
[Ac trans]
+16.6 +1.5 36 +17 +22 по сезону 1022.2 1000.7
12 19.09 С 3 10 км 8/0
[Ac trans]
+18.6 +1.6 32 +19 +22 прохладно 1021.1 999.8
15 19.09 СЗ 2 10 км 9/0
[Ac trans Ci fib]
+17.9 +1.0 32 +18 +19 по сезону 1020.6 999.2
18 19.09 С 3 10 км 6/0
[Ac trans Ci fib]
+13.2 -0.1 40 +12 +12 прохладно 1021.2 999.5 +19.3
21 19.09 В 2 10 км 8/0
[Ac trans]
+13.1 +2.9 50 +13 +13 по сезону 1020.9 999.2
00 20.09 В 3 10 км 8/0
[Ac trans]
+12.9 +3.3 52 +12 +12 по сезону 1019.8 998.1
03 20.09 В 3 10 км 10/0
[Ac und]
+12.8 +3.5 53 +12 +12 по сезону 1018.5 996.8 +12.2
06 20.09 СВ 1 10 км 10/0
[Ac lent]
+14.6 +3.1 46 +15 +16 по сезону 1018.5 996.9 +12.2

 

Местоположение метеостанции Симферополь (Крым, Россия): широта 45.03 долгота 33.97 высота над уровнем моря 181 м.

В архиве по умолчанию представлена погода в Симферополе за последнюю неделю. Архивные данные за месяц целиком и за предыдущие месяцы, начиная с января 2011 года, Вы можете получить, выбрав интересующий диапазон дат из раскрывающегося списка и нажав кнопку "Ввод!".


*Определитесь, кто Вы:
робот инопланетянин человек

Внимание! Время в таблицах - всемирное. Для получения местного времени необходимо прибавить поправку, которая равна 3 ч.

Смотрите также архив погоды в соседних городах и на ближайших метеорологических станциях:

Погода в Симферополе город (Крым, Россия) (15 км)
Погода в Почтовом (Крым, Россия) (22 км)
Погода на Ангарском Перевале (Крым, Россия) (43 км)
Погода в Белогорске (Крым, Россия) (50 км)
Погода в Евпатории (Крым, Россия) (50 км)
Погода в Алуште (Крым, Россия) (52 км)
Погода в Севастополе (город Севастополь, Россия) (57 км)
Погода в Клепинино (Крым, Россия) (58 км)
Погода в Никитском саду (Крым, Россия) (61 км)
Погода на Ай-Петри (Крым, Россия) (63 км)

Пояснения к столбцам:

Ветер - указаны скорость ветра в м/с - средняя за 10 мин, порывы в срок и между сроками (в фигурных скобках) и направление, откуда дует ветер: С - северный, СВ - северо-восточный, В - восточный, ЮВ - юго-восточный, Ю - южный, ЮЗ - юго-западный, З - западный, СЗ - северо-западный.
Видимость - горизонтальная дальность видимости в метрах или километрах. При видимости от 1 до 10 км при отсутствии осадков обычно наблюдается дымка, при ухудшении видимости до 1 км и менее - туман. В сухую погоду видимость может ухудшаться дымом, пылью или мглою.
Явления - указаны атмосферные явления, наблюдавшиеся в срок или в последний час перед сроком; фигурными скобками обозначены явления, наблюдавшиеся между сроками (за 1-3 часа до срока); квадратными скобками обозначены град или гололедные отложения с указанием их диаметра в мм.
Облачность - указаны через наклонную черту общая и нижняя облачность в баллах и высота нижней границы облаков в метрах; квадратными скобками обозначены формы облаков: Ci - перистые, Cs - перисто-слоистые, Cc - перисто-кучевые, Ac - высококучевые, As - высокослоистые, Sc - слоисто-кучевые, Ns - слоисто-дождевые, Cu - кучевые, Cb - кучево-дождевые. Подробнее классификацию облаков см. в Атласе облаков (PDF).
T - Температура воздуха - температура, измеренная на высоте 2 м над землей.
Td - Температура точки росы - температура, при понижении до которой содержащийся в воздухе водяной пар достигнет насыщения.
f - Относительная влажность воздуха - влажноcть воздуха, измеренная на высоте 2 м над землей.
Te - Эффективная температура - температура, которую ощущает одетый по сезону человек в тени. Характеристика душности погоды. При расчете учитывается влияние влажности воздуха и скорости ветра на теплоощущения человека.
Tes - Эффективная температура на солнце - температура, которую ощущает человек, с поправкой на солнечный нагрев. Характеристика знойности погоды. Зависит от высоты солнца над горизонтом, облачности и скорости ветра. Ночью, в пасмурную погоду, а также при ветре 12 м/с и более поправка равна нулю.
P - Атмосферное давление - приведенное к уровню моря атмосферное давление.
Po - Атмосферное давление - измеренное на уровне метеостанции атмосферное давление.
Tmin - Минимальная температура - минимум температуры воздуха на высоте 2 м над землей.
Tmax - Максимальная температура - максимум температуры воздуха на высоте 2 м над землей.
R - Количество осадков - Количество выпавших осадков за период времени, мм. При наведении курсора мыши на число - период времени, за который выпало указанное количество осадков.
R24 - Количество осадков - Количество выпавших осадков за 24 часа, мм.
S - Снежный покров - Высота снежного покрова, см. При наведении курсора мыши на число - состояние снежного покрова и степень покрытия местности в баллах.